Regional Weather Roundup
Issued by NWS Charleston, SC

Current Version | Previous Version | Graphics & Text | Print | Product List | Glossary On
Versions: 1 2 3 4 5 6 7 8 9 10 11 12 13 14 15 16 17 18 19 20 21 22 23 24 25 26 27 28 29 30 31 32 33 34 35 36 37 38 39 40 41 42 43 44 45 46 47 48 49 50
000 ASUS42 KCHS 200225 RWRCHS REGIONAL WEATHER ROUNDUP NATIONAL WEATHER SERVICE CHARLESTON SC 900 PM EST FRI DEC 19 2014 NOTE: "FAIR" INDICATES FEW OR NO CLOUDS BELOW 12,000 FEET WITH NO SIGNIFICANT WEATHER AND/OR OBSTRUCTIONS TO VISIBILITY. NOT ALL STATIONS ARE QUALITY CONTROLLED BY THE NATIONAL WEATHER SERVICE. USE DATA WITH CAUTION...ESPECIALLY DEWPOINT OBSERVATIONS. SCZ027-030-031-034>040-042>050-200300- ...SOUTHEAST SOUTH CAROLINA... CITY SKY/WX TMP DP RH WIND PRES REMARKS N CHARLESTON MOCLDY 48 42 80 N3 30.15R WATERFRONT PRK N/A 54 N/A N/A N6 N/A MOUNT PLEASANT FAIR 48 46 93 CALM 30.15R PINOPOLIS N/A 54 45 71 VRB2 30.07R MONCKS CORNER FAIR 50 43 76 CALM 30.15R SUMMERVILLE NOT AVBL BEAUFORT MCAS MOCLDY 54 50 86 CALM 30.14R BEAUFORT ARPT FAIR 52 52 100 NE3 30.14R HILTON HEAD IS PTCLDY 52 52 100 N3 30.15R WALTERBORO MOCLDY 46 N/A N/A CALM 30.16R ALLENDALE FAIR 48 45 87 CALM 30.15R ...SOUTHERN MIDLANDS AND PEE DEE... CITY SKY/WX TMP DP RH WIND PRES REMARKS GEORGETOWN NOT AVBL KINGSTREE NOT AVBL ORANGEBURG CLOUDY 50 42 74 NE5 30.14R BARNWELL FAIR 52 45 76 CALM 30.15R AIKEN FAIR 50 43 76 E3 30.16F MANNING NOT AVBL COLUMBIA CLOUDY 52 39 61 CALM 30.15R SUMTER CLOUDY 46 35 66 NE5 30.14R FLORENCE PTCLDY 47 33 58 NE3 30.16S MYRTLE BEACH CLEAR 45 37 76 VRB6 30.17R N MYRTLE BEACH PTCLDY 42 39 89 CALM 30.16S $$ GAZ063-065-086>088-099>101-113>116-118-119-134>141-150-200300- ...SOUTHEAST GEORGIA... CITY SKY/WX TMP DP RH WIND PRES REMARKS SAVANNAH ARPT MOCLDY 52 46 80 CALM 30.15R HUNTER AAF CLOUDY 50 46 87 CALM 30.12R FORT STEWART CLOUDY 48 45 89 N3 30.12R STATESBORO PTCLDY 46 46 100 CALM 30.14R SYLVANIA PTCLDY 47 46 97 CALM 30.14S CLAXTON FAIR 46 45 93 CALM 30.14S ...CSRA...CENTRAL AND FAR SOUTHEAST GEORGIA... CITY SKY/WX TMP DP RH WIND PRES REMARKS THOMSON CLOUDY 49 46 91 CALM 30.18S AUGUSTA-BUSH CLOUDY 47 41 80 SE3 30.14R AUGUSTA-DANIEL CLOUDY 54 42 64 CALM 30.13S SWAINSBORO FAIR 50 50 100 CALM 30.15S VIDALIA CLOUDY 48 46 93 CALM 30.15R EASTMAN MOCLDY 49 47 90 CALM 30.17S HAZLEHURST CLOUDY 52 49 92 CALM 30.14R ALMA CLOUDY 52 44 74 CALM 30.14R WAYCROSS CLOUDY 57 48 72 CALM 30.15R JESUP MOCLDY 55 48 76 N3 30.15R BAXLEY CLOUDY 52 46 82 CALM 30.13S BRUNSWICK MOCLDY 52 45 76 CALM 30.14R SAINT SIMONS PTCLDY 54 48 80 CALM 30.13R $$ SCZ027-028-034-036>038-045-046-048>050-GAZ119-141-200300- ...LAKE AND SUPPLEMENTAL COASTAL OBSERVATIONS... STATION/POSITION TIME TEMP WIND PRES WAVE SWELL AIR SEA DIR/SP/G HT/PER HT/PER/DIR (UTC) (F) (DEG/KT/KT) (MB) (FT/S) (FT/S/D) UPR LAKE MARION NOT AVBL WINYAH BAY 0200 47 340/ 2 1020.0S LAKE MURRAY 0200 52 30/ 1/ 3 1020.3R ACE BASIN NERRS 0200 50 CALM 1020.0S FORT PULASKI 0200 56 57 70/ 5/ 6 1020.5R SAPELO ISLAND 0200 50 20/ 2 1020.0S $$ ANZ835-935-AMZ111-154-330-350-352-354-370-450-454-472-200300- ...C-MAN AND BUOY OBSERVATIONS... STATION/POSITION TIME TEMP WIND PRES WAVE SWELL AIR SEA DIR/SP/G HT/PER HT/PER/DIR (UTC) (F) (DEG/KT/KT) (MB) (FT/S) (FT/S/D) BUOY 41004 0200 63 68 60/ 8/ 10 1019.4F 2/11 2/11 BUOY 41008 0200 58 57 60/ 6/ 6 1020.0R 1/11 2/100/11 FOLLY BEACH CMAN 0200 56 40/ 10/ 12 1021.3R CAPERS NEARSHORE 0100 55 70/ 12/ 14 N/A FRIPP NEARSHORE NOT AVBL STATION/POSITION TIME TEMP WIND PRES WAVE SWELL AIR SEA DIR/SP/G HT/PER HT/PER/DIR (UTC) (F) (DEG/KT/KT) (MB) (FT/S) (FT/S/D) 5E ST. MARYS GA 0200 60 N/A 1/11 FRYING PAN BUOY 0200 57 62 70/ 8/ 12 1022.0S 2/10 2/110/10 BUOY 41025 0200 46 1022.5R 3/ 7 CAPE LOOKOUT NC 0200 47 20/ 7/ 9 1022.4R BUOY 41002 0056 66 72 10/ 6/ 8 1020.6R 3/11 2/ 80/11 BUOY 41010 0200 71 76 60/ 4/ 6 1019.8R 2/10 2/ 80/10 ST AUGUSTINE FL 0200 63 110/ 7/ 8 1019.3F $$

USA.gov is the U.S. government's official web portal to all federal, state and local government web resources and services.